Data No.,UTC Date,UTC Time,Latitude,Longitude,Course(deg),Temp(degC),Sal(psu)
347,2013/2/24,8:05:00,31-59.9100S,152-54.9300E,29,24.474,33.9702
348,2013/2/24,8:06:00,31-59.7800S,152-55.0100E,31,24.505,33.9153
349,2013/2/24,8:07:00,31-59.6600S,152-55.1000E,28,24.542,33.8706
350,2013/2/24,8:08:00,31-59.5400S,152-55.1800E,29,24.552,33.8507
351,2013/2/24,8:09:00,31-59.4100S,152-55.2700E,30,24.577,33.8748
352,2013/2/24,8:10:00,31-59.2900S,152-55.3500E,28,24.623,33.9178
353,2013/2/24,8:11:00,31-59.1600S,152-55.4300E,25,24.672,33.9794
354,2013/2/24,8:12:00,31-59.0400S,152-55.5000E,27,24.675,34.0533
355,2013/2/24,8:13:00,31-58.9200S,152-55.5900E,31,24.653,34.0614
356,2013/2/24,8:14:00,31-58.8000S,152-55.6700E,32,24.622,34.0415
357,2013/2/24,8:15:00,31-58.6800S,152-55.7600E,29,24.58,33.9892
358,2013/2/24,8:16:00,31-58.5600S,152-55.8300E,26,24.616,33.8974
359,2013/2/24,8:17:00,31-58.4300S,152-55.9000E,25,24.638,33.8376
360,2013/2/24,8:18:00,31-58.3100S,152-55.9700E,26,24.723,33.8337
361,2013/2/24,8:19:00,31-58.1900S,152-56.0400E,27,24.686,33.9146
362,2013/2/24,8:20:00,31-58.0600S,152-56.1100E,29,24.655,34.1605
363,2013/2/24,8:21:00,31-57.9400S,152-56.1800E,26,24.685,34.4289
364,2013/2/24,8:22:00,31-57.8200S,152-56.2600E,31,24.726,34.5616
365,2013/2/24,8:23:00,31-57.7000S,152-56.3400E,29,24.779,34.5974
366,2013/2/24,8:24:00,31-57.5800S,152-56.4300E,30,24.77,34.5411
367,2013/2/24,8:25:00,31-57.4600S,152-56.5100E,31,24.922,34.4726
368,2013/2/24,8:26:00,31-57.3400S,152-56.5800E,27,25.094,34.3584
369,2013/2/24,8:27:00,31-57.2200S,152-56.6500E,26,24.88,34.2446
370,2013/2/24,8:28:00,31-57.1000S,152-56.7200E,25,24.786,34.2259
371,2013/2/24,8:29:00,31-56.9700S,152-56.7800E,24,24.74,34.2344
372,2013/2/24,8:30:00,31-56.8500S,152-56.8500E,24,24.765,34.3384
373,2013/2/24,8:31:00,31-56.7300S,152-56.9200E,24,24.882,34.3901
374,2013/2/24,8:32:00,31-56.6100S,152-56.9800E,22,25.167,34.2538
375,2013/2/24,8:33:00,31-56.4900S,152-57.0400E,23,24.883,34.0036
376,2013/2/24,8:34:00,31-56.3600S,152-57.1000E,23,24.721,33.7848
377,2013/2/24,8:35:00,31-56.2400S,152-57.1700E,26,24.869,33.7742
378,2013/2/24,8:36:00,31-56.1200S,152-57.2300E,23,24.855,33.9136
379,2013/2/24,8:37:00,31-56.0000S,152-57.3000E,24,24.926,34.021
380,2013/2/24,8:38:00,31-55.8800S,152-57.3700E,28,24.771,33.8886
381,2013/2/24,8:39:00,31-55.7700S,152-57.4300E,25,24.913,33.7339
382,2013/2/24,8:40:00,31-55.6400S,152-57.5000E,24,25.078,33.7996
383,2013/2/24,8:41:00,31-55.5300S,152-57.5600E,23,25.181,33.8875
384,2013/2/24,8:42:00,31-55.4100S,152-57.6300E,24,25.096,33.8308
385,2013/2/24,8:43:00,31-55.2800S,152-57.6900E,24,25.22,33.81
386,2013/2/24,8:44:00,31-55.1600S,152-57.7500E,25,24.978,33.9627
387,2013/2/24,8:45:00,31-55.0400S,152-57.8200E,27,25.023,34.1539
388,2013/2/24,8:46:00,31-54.9100S,152-57.9000E,27,25.134,34.2847
389,2013/2/24,8:47:00,31-54.8000S,152-57.9700E,27,25.318,34.3634
390,2013/2/24,8:48:00,31-54.6700S,152-58.0400E,23,25.453,34.3428
391,2013/2/24,8:49:00,31-54.5600S,152-58.1100E,25,25.36,34.2233
392,2013/2/24,8:50:00,31-54.4400S,152-58.1700E,23,25.374,34.2387
393,2013/2/24,8:51:00,31-54.3200S,152-58.2300E,22,25.4,34.3675
394,2013/2/24,8:52:00,31-54.2000S,152-58.3000E,27,25.336,34.5256
395,2013/2/24,8:53:00,31-54.0800S,152-58.3600E,25,25.361,34.6218
396,2013/2/24,8:54:00,31-53.9600S,152-58.4300E,28,25.301,34.6281
397,2013/2/24,8:55:00,31-53.8500S,152-58.5000E,26,25.247,34.6286
398,2013/2/24,8:56:00,31-53.7300S,152-58.5700E,28,25.317,34.6081
399,2013/2/24,8:57:00,31-53.6200S,152-58.6400E,26,25.405,34.586
400,2013/2/24,8:58:00,31-53.5000S,152-58.7100E,29,25.506,34.5641
401,2013/2/24,8:59:00,31-53.3900S,152-58.7800E,25,25.56,34.4986
402,2013/2/24,9:00:00,31-53.2700S,152-58.8400E,24,25.577,34.44
403,2013/2/24,9:01:00,31-53.1600S,152-58.9000E,23,25.584,34.4591
404,2013/2/24,9:02:00,31-53.0400S,152-58.9500E,19,25.569,34.5173
405,2013/2/24,9:03:00,31-52.9200S,152-59.0200E,26,25.527,34.5976
406,2013/2/24,9:04:00,31-52.8100S,152-59.0800E,26,25.62,34.6644
407,2013/2/24,9:05:00,31-52.6900S,152-59.1400E,22,25.65,34.7062
408,2013/2/24,9:06:00,31-52.5800S,152-59.2000E,20,25.667,34.7213
409,2013/2/24,9:07:00,31-52.4500S,152-59.2500E,20,25.679,34.7049
410,2013/2/24,9:08:00,31-52.3300S,152-59.3000E,17,25.687,34.7052
411,2013/2/24,9:09:00,31-52.2100S,152-59.3500E,19,25.7,34.7338
412,2013/2/24,9:10:00,31-52.1000S,152-59.4000E,20,25.708,34.7609
413,2013/2/24,9:11:00,31-51.9800S,152-59.4400E,18,25.706,34.7628
414,2013/2/24,9:12:00,31-51.8600S,152-59.4900E,16,25.7,34.7621
415,2013/2/24,9:13:00,31-51.7400S,152-59.5400E,21,25.702,34.7539
416,2013/2/24,9:14:00,31-51.6200S,152-59.5900E,20,25.711,34.7448
417,2013/2/24,9:15:00,31-51.5000S,152-59.6300E,17,25.719,34.7381
418,2013/2/24,9:16:00,31-51.3800S,152-59.6800E,16,25.718,34.7355
419,2013/2/24,9:17:00,31-51.2600S,152-59.7100E,13,25.709,---
420,2013/2/24,9:18:00,31-51.1500S,152-59.7500E,17,25.701,34.7201
421,2013/2/24,9:19:00,31-51.0300S,152-59.7900E,17,25.695,34.7162
422,2013/2/24,9:20:00,31-50.9100S,152-59.8300E,16,25.696,34.7121
423,2013/2/24,9:21:00,31-50.7900S,152-59.8800E,17,25.689,34.7056
424,2013/2/24,9:22:00,31-50.6700S,152-59.9200E,16,25.688,34.6822
425,2013/2/24,9:23:00,31-50.5500S,152-59.9600E,17,25.677,34.6454
426,2013/2/24,9:24:00,31-50.4400S,153-00.0100E,18,25.675,---
427,2013/2/24,9:25:00,31-50.3200S,153-00.0600E,19,25.683,34.5813
428,2013/2/24,9:26:00,31-50.2000S,153-00.1000E,18,25.686,---
429,2013/2/24,9:27:00,31-50.0800S,153-00.1400E,16,25.678,34.5532
430,2013/2/24,9:28:00,31-49.9600S,153-00.1800E,16,25.681,34.5273
431,2013/2/24,9:29:00,31-49.8400S,153-00.2200E,16,25.678,34.4941
432,2013/2/24,9:30:00,31-49.7100S,153-00.2600E,16,25.686,---
433,2013/2/24,9:31:00,31-49.5900S,153-00.3100E,17,25.677,---
434,2013/2/24,9:32:00,31-49.4800S,153-00.3500E,14,25.674,---
435,2013/2/24,9:33:00,31-49.3600S,153-00.3900E,14,25.681,---
436,2013/2/24,9:34:00,31-49.2400S,153-00.4300E,17,25.67,---
437,2013/2/24,9:35:00,31-49.1300S,153-00.4700E,16,25.667,---
438,2013/2/24,9:36:00,31-49.0000S,153-00.5100E,15,25.665,---
439,2013/2/24,9:37:00,31-48.8900S,153-00.5400E,15,25.662,---
440,2013/2/24,9:38:00,31-48.7700S,153-00.5700E,11,25.653,---
441,2013/2/24,9:39:00,31-48.6500S,153-00.6100E,13,25.653,---
442,2013/2/24,9:40:00,31-48.5300S,153-00.6400E,11,25.65,---
443,2013/2/24,9:41:00,31-48.4000S,153-00.6600E,10,25.646,---
444,2013/2/24,9:42:00,31-48.2800S,153-00.6900E,9,25.643,---
445,2013/2/24,9:43:00,31-48.1600S,153-00.7100E,9,25.641,---
446,2013/2/24,9:44:00,31-48.0300S,153-00.7300E,8,25.639,---
447,2013/2/24,9:45:00,31-47.9100S,153-00.7600E,9,25.637,---
448,2013/2/24,9:46:00,31-47.7900S,153-00.7800E,10,25.632,---
449,2013/2/24,9:47:00,31-47.6600S,153-00.8100E,11,25.623,---
450,2013/2/24,9:48:00,31-47.5400S,153-00.8400E,12,25.619,---
451,2013/2/24,9:49:00,31-47.4200S,153-00.8700E,13,25.623,---
452,2013/2/24,9:50:00,31-47.3000S,153-00.9000E,10,25.622,---
453,2013/2/24,9:51:00,31-47.1700S,153-00.9400E,13,25.619,---
454,2013/2/24,9:52:00,31-47.0500S,153-00.9700E,12,25.618,---
455,2013/2/24,9:53:00,31-46.9300S,153-01.0000E,10,25.615,---
456,2013/2/24,9:54:00,31-46.8100S,153-01.0200E,8,25.612,---
457,2013/2/24,9:55:00,31-46.6900S,153-01.0400E,7,25.604,---
458,2013/2/24,9:56:00,31-46.5700S,153-01.0600E,9,25.593,---
459,2013/2/24,9:57:00,31-46.4400S,153-01.0900E,12,25.58,---
460,2013/2/24,9:58:00,31-46.3200S,153-01.1200E,13,25.57,---
461,2013/2/24,9:59:00,31-46.2100S,153-01.1500E,14,25.561,---
462,2013/2/24,10:00:00,31-46.0900S,153-01.2000E,18,25.558,---
463,2013/2/24,10:01:00,31-45.9700S,153-01.2400E,17,25.558,---
464,2013/2/24,10:02:00,31-45.8500S,153-01.2800E,16,25.56,---
465,2013/2/24,10:03:00,31-45.7300S,153-01.3100E,11,25.558,---
466,2013/2/24,10:04:00,31-45.6100S,153-01.3400E,10,25.544,---
467,2013/2/24,10:05:00,31-45.4900S,153-01.3800E,11,25.531,---
468,2013/2/24,10:06:00,31-45.3800S,153-01.4100E,14,25.522,---
469,2013/2/24,10:07:00,31-45.2600S,153-01.4400E,11,25.524,---
470,2013/2/24,10:08:00,31-45.1400S,153-01.4700E,12,25.513,---
471,2013/2/24,10:09:00,31-45.0200S,153-01.5000E,13,25.5,---
472,2013/2/24,10:10:00,31-44.9000S,153-01.5400E,14,25.501,---
473,2013/2/24,10:11:00,31-44.7800S,153-01.5700E,14,25.493,---
474,2013/2/24,10:12:00,31-44.6600S,153-01.6100E,13,25.49,---
475,2013/2/24,10:13:00,31-44.5400S,153-01.6500E,15,25.477,---
476,2013/2/24,10:14:00,31-44.4200S,153-01.6800E,13,25.474,---
477,2013/2/24,10:15:00,31-44.3000S,153-01.7200E,14,25.458,---
478,2013/2/24,10:16:00,31-44.1800S,153-01.7600E,14,25.465,---
479,2013/2/24,10:17:00,31-44.0600S,153-01.7900E,11,25.464,---
480,2013/2/24,10:18:00,31-43.9400S,153-01.8200E,11,25.449,---
481,2013/2/24,10:19:00,31-43.8200S,153-01.8500E,13,25.429,---
482,2013/2/24,10:20:00,31-43.7100S,153-01.8800E,13,25.422,---
483,2013/2/24,10:21:00,31-43.5800S,153-01.9100E,14,25.414,---
484,2013/2/24,10:22:00,31-43.4600S,153-01.9500E,11,25.423,---
485,2013/2/24,10:23:00,31-43.3400S,153-01.9800E,12,25.425,---
486,2013/2/24,10:24:00,31-43.2200S,153-02.0200E,15,25.417,---
487,2013/2/24,10:25:00,31-43.1000S,153-02.0500E,14,25.406,---
488,2013/2/24,10:26:00,31-42.9800S,153-02.0900E,14,25.407,---
489,2013/2/24,10:27:00,31-42.8600S,153-02.1200E,12,25.417,---
490,2013/2/24,10:28:00,31-42.7500S,153-02.1500E,12,25.421,---
491,2013/2/24,10:29:00,31-42.6300S,153-02.1800E,11,25.424,---
492,2013/2/24,10:30:00,31-42.5100S,153-02.2200E,14,25.408,---
493,2013/2/24,10:31:00,31-42.3900S,153-02.2500E,15,25.396,---
494,2013/2/24,10:32:00,31-42.2700S,153-02.2900E,15,25.399,---
495,2013/2/24,10:33:00,31-42.1400S,153-02.3200E,13,25.406,---
496,2013/2/24,10:34:00,31-42.0100S,153-02.3500E,12,25.405,---
497,2013/2/24,10:35:00,31-41.8900S,153-02.3800E,12,25.405,---
498,2013/2/24,10:36:00,31-41.7700S,153-02.4200E,13,25.418,---
499,2013/2/24,10:37:00,31-41.6500S,153-02.4500E,13,25.398,---
500,2013/2/24,10:38:00,31-41.5300S,153-02.4800E,14,25.375,---
501,2013/2/24,10:39:00,31-41.4100S,153-02.5200E,15,25.38,---
502,2013/2/24,10:40:00,31-41.2900S,153-02.5600E,16,25.387,---
503,2013/2/24,10:41:00,31-41.1600S,153-02.6000E,15,25.381,---
504,2013/2/24,10:42:00,31-41.0400S,153-02.6400E,15,25.373,---
505,2013/2/24,10:43:00,31-40.9200S,153-02.6900E,18,25.371,---
506,2013/2/24,10:44:00,31-40.8000S,153-02.7300E,16,25.37,---
507,2013/2/24,10:45:00,31-40.6800S,153-02.7700E,16,25.361,---
508,2013/2/24,10:46:00,31-40.5600S,153-02.8100E,14,25.36,---
509,2013/2/24,10:47:00,31-40.4400S,153-02.8400E,12,25.338,---
510,2013/2/24,10:48:00,31-40.3200S,153-02.8600E,9,25.328,---
511,2013/2/24,10:49:00,31-40.1900S,153-02.8900E,11,25.303,---
512,2013/2/24,10:50:00,31-40.0700S,153-02.9300E,15,25.29,---
513,2013/2/24,10:51:00,31-39.9500S,153-02.9700E,15,25.274,---
514,2013/2/24,10:52:00,31-39.8300S,153-03.0100E,16,25.269,---
515,2013/2/24,10:53:00,31-39.7100S,153-03.0400E,14,25.254,---
516,2013/2/24,10:54:00,31-39.5900S,153-03.0800E,16,25.243,33.5363
517,2013/2/24,10:55:00,31-39.4600S,153-03.1200E,14,25.235,33.4535
518,2013/2/24,10:56:00,31-39.3300S,153-03.1600E,14,25.237,33.5087
519,2013/2/24,10:57:00,31-39.2100S,153-03.2000E,13,25.222,33.4932
520,2013/2/24,10:58:00,31-39.0900S,153-03.2400E,16,25.211,33.5695
521,2013/2/24,10:59:00,31-38.9700S,153-03.2800E,17,25.213,33.4064
522,2013/2/24,11:00:00,31-38.8600S,153-03.3100E,12,25.225,33.2823
523,2013/2/24,11:01:00,31-38.7300S,153-03.3500E,15,25.212,33.2927
524,2013/2/24,11:02:00,31-38.6200S,153-03.3900E,14,25.213,33.3656
525,2013/2/24,11:03:00,31-38.5000S,153-03.4300E,17,25.213,33.3217
526,2013/2/24,11:04:00,31-38.3800S,153-03.4700E,16,25.226,33.2489
527,2013/2/24,11:05:00,31-38.2700S,153-03.5100E,16,25.239,33.2255
528,2013/2/24,11:06:00,31-38.1500S,153-03.5400E,12,25.255,33.2965
529,2013/2/24,11:07:00,31-38.0300S,153-03.5800E,13,25.242,33.4336
530,2013/2/24,11:08:00,31-37.9100S,153-03.6100E,12,25.24,33.7109
531,2013/2/24,11:09:00,31-37.7900S,153-03.6400E,14,25.238,33.52
532,2013/2/24,11:10:00,31-37.6800S,153-03.6900E,16,25.237,33.4195
533,2013/2/24,11:11:00,31-37.5600S,153-03.7300E,17,25.231,33.4146
534,2013/2/24,11:12:00,31-37.4400S,153-03.7700E,15,25.215,33.5146
535,2013/2/24,11:13:00,31-37.3200S,153-03.8200E,17,25.185,33.7805
536,2013/2/24,11:14:00,31-37.2100S,153-03.8600E,17,25.171,33.9914
537,2013/2/24,11:15:00,31-37.0900S,153-03.9000E,14,25.163,34.0704
538,2013/2/24,11:16:00,31-36.9700S,153-03.9400E,13,25.16,34.1987
539,2013/2/24,11:17:00,31-36.8500S,153-03.9700E,12,25.155,34.2814
540,2013/2/24,11:18:00,31-36.7300S,153-04.0000E,12,25.152,34.3444
541,2013/2/24,11:19:00,31-36.6100S,153-04.0400E,15,25.165,34.4048
542,2013/2/24,11:20:00,31-36.4900S,153-04.0700E,13,25.182,34.4443
543,2013/2/24,11:21:00,31-36.3800S,153-04.1100E,14,25.208,34.4634
544,2013/2/24,11:22:00,31-36.2600S,153-04.1500E,16,25.241,34.4921
545,2013/2/24,11:23:00,31-36.1400S,153-04.1900E,15,25.273,34.5228
546,2013/2/24,11:24:00,31-36.0300S,153-04.2300E,18,25.298,34.5608
547,2013/2/24,11:25:00,31-35.9100S,153-04.2800E,16,25.313,34.6149
548,2013/2/24,11:26:00,31-35.7900S,153-04.3200E,15,25.325,34.6666
549,2013/2/24,11:27:00,31-35.6700S,153-04.3600E,18,25.334,34.7137
550,2013/2/24,11:28:00,31-35.5500S,153-04.4100E,17,25.339,34.7509
551,2013/2/24,11:29:00,31-35.4300S,153-04.4500E,16,25.341,34.7761
552,2013/2/24,11:30:00,31-35.3200S,153-04.4900E,14,25.349,34.7897
553,2013/2/24,11:31:00,31-35.2000S,153-04.5200E,13,25.356,34.7856
554,2013/2/24,11:32:00,31-35.0700S,153-04.5600E,10,25.347,34.7762
555,2013/2/24,11:33:00,31-34.9500S,153-04.5900E,12,25.355,34.7614
556,2013/2/24,11:34:00,31-34.8300S,153-04.6200E,16,25.388,34.7465
557,2013/2/24,11:35:00,31-34.7200S,153-04.6700E,18,25.407,34.7059
558,2013/2/24,11:36:00,31-34.6000S,153-04.7200E,20,25.436,34.6914
559,2013/2/24,11:37:00,31-34.4900S,153-04.7700E,19,25.452,34.6968
560,2013/2/24,11:38:00,31-34.3600S,153-04.8100E,17,25.472,34.7092
561,2013/2/24,11:39:00,31-34.2400S,153-04.8500E,15,25.469,34.7206
562,2013/2/24,11:40:00,31-34.1300S,153-04.8800E,11,25.472,34.7353
563,2013/2/24,11:41:00,31-34.0100S,153-04.9100E,10,25.468,34.7303
564,2013/2/24,11:42:00,31-33.8900S,153-04.9400E,13,25.474,34.7199
565,2013/2/24,11:43:00,31-33.7700S,153-04.9800E,14,25.475,34.7115
566,2013/2/24,11:44:00,31-33.6600S,153-05.0200E,17,25.48,34.7049
567,2013/2/24,11:45:00,31-33.5400S,153-05.0600E,15,25.482,34.7005
568,2013/2/24,11:46:00,31-33.4300S,153-05.1000E,15,25.489,34.6928
569,2013/2/24,11:47:00,31-33.3100S,153-05.1300E,11,25.455,34.693
570,2013/2/24,11:48:00,31-33.1900S,153-05.1600E,11,25.44,34.6864
571,2013/2/24,11:49:00,31-33.0700S,153-05.1900E,13,25.421,34.6276
572,2013/2/24,11:50:00,31-32.9600S,153-05.2200E,13,25.415,34.5338
573,2013/2/24,11:51:00,31-32.8400S,153-05.2500E,10,25.417,34.4439
574,2013/2/24,11:52:00,31-32.7300S,153-05.2800E,12,25.418,34.3349
575,2013/2/24,11:53:00,31-32.6100S,153-05.3100E,10,25.424,34.316
576,2013/2/24,11:54:00,31-32.4900S,153-05.3400E,10,25.438,34.3231
577,2013/2/24,11:55:00,31-32.3700S,153-05.3600E,11,25.436,34.3432
578,2013/2/24,11:56:00,31-32.2500S,153-05.3900E,8,25.401,34.3529
579,2013/2/24,11:57:00,31-32.1300S,153-05.4100E,9,25.415,34.3762
580,2013/2/24,11:58:00,31-32.0200S,153-05.4400E,11,25.389,34.3595
581,2013/2/24,11:59:00,31-31.8900S,153-05.4600E,8,25.416,34.2993
582,2013/2/24,12:00:00,31-31.7700S,153-05.4900E,10,25.416,34.2655
583,2013/2/24,12:01:00,31-31.6500S,153-05.5200E,13,25.381,34.2539
584,2013/2/24,12:02:00,31-31.5400S,153-05.5500E,12,25.381,34.2509
585,2013/2/24,12:03:00,31-31.4200S,153-05.5800E,15,25.366,34.2303
586,2013/2/24,12:04:00,31-31.3000S,153-05.6100E,12,25.376,34.1909
587,2013/2/24,12:05:00,31-31.1900S,153-05.6400E,11,25.437,34.1563
588,2013/2/24,12:06:00,31-31.0700S,153-05.6700E,10,25.48,34.1444
589,2013/2/24,12:07:00,31-30.9500S,153-05.6900E,8,25.463,34.1625
590,2013/2/24,12:08:00,31-30.8300S,153-05.7100E,7,25.408,34.2774
591,2013/2/24,12:09:00,31-30.7200S,153-05.7300E,9,25.389,34.4109
592,2013/2/24,12:10:00,31-30.6000S,153-05.7600E,9,25.362,34.393
593,2013/2/24,12:11:00,31-30.4800S,153-05.7800E,9,25.33,34.2658
594,2013/2/24,12:12:00,31-30.3600S,153-05.8100E,13,25.369,34.1903
595,2013/2/24,12:13:00,31-30.2500S,153-05.8500E,12,25.41,34.1176
596,2013/2/24,12:14:00,31-30.1300S,153-05.8700E,10,25.455,34.004
597,2013/2/24,12:15:00,31-30.0100S,153-05.9000E,8,25.417,34.0557
598,2013/2/24,12:16:00,31-29.8900S,153-05.9200E,9,25.43,34.266
599,2013/2/24,12:17:00,31-29.7700S,153-05.9400E,10,25.417,34.3123
600,2013/2/24,12:18:00,31-29.6500S,153-05.9700E,10,25.464,34.3343
601,2013/2/24,12:19:00,31-29.5300S,153-06.0000E,12,25.396,34.389
602,2013/2/24,12:20:00,31-29.4200S,153-06.0300E,12,25.455,34.3688
603,2013/2/24,12:21:00,31-29.2900S,153-06.0600E,12,25.445,34.4619
604,2013/2/24,12:22:00,31-29.1700S,153-06.0900E,9,25.478,34.3708
605,2013/2/24,12:23:00,31-29.0500S,153-06.1100E,11,25.409,34.4624
606,2013/2/24,12:24:00,31-28.9300S,153-06.1400E,9,25.458,34.4922
607,2013/2/24,12:25:00,31-28.8100S,153-06.1600E,9,25.476,34.4887
608,2013/2/24,12:26:00,31-28.6900S,153-06.1800E,8,25.472,34.4614
609,2013/2/24,12:27:00,31-28.5700S,153-06.2000E,9,25.464,34.5462
610,2013/2/24,12:28:00,31-28.4500S,153-06.2300E,10,25.358,34.6071
611,2013/2/24,12:29:00,31-28.3300S,153-06.2500E,11,25.445,34.623
612,2013/2/24,12:30:00,31-28.2100S,153-06.2800E,8,25.488,34.5838
613,2013/2/24,12:31:00,31-28.0900S,153-06.3000E,7,25.498,34.4401
614,2013/2/24,12:32:00,31-27.9700S,153-06.3200E,6,25.468,34.5658
615,2013/2/24,12:33:00,31-27.8500S,153-06.3400E,8,25.36,34.6951
616,2013/2/24,12:34:00,31-27.7200S,153-06.3600E,9,25.288,34.7572
617,2013/2/24,12:35:00,31-27.6100S,153-06.3900E,14,25.285,34.7315
618,2013/2/24,12:36:00,31-27.4900S,153-06.4300E,16,25.386,34.4932
619,2013/2/24,12:37:00,31-27.3700S,153-06.4700E,15,25.45,34.2718
620,2013/2/24,12:38:00,31-27.2500S,153-06.5100E,14,25.465,34.2352
621,2013/2/24,12:39:00,31-27.1300S,153-06.5500E,16,25.475,34.4121
622,2013/2/24,12:40:00,31-27.0100S,153-06.5900E,15,25.473,34.6333
623,2013/2/24,12:41:00,31-26.8900S,153-06.6200E,13,25.484,34.7774
624,2013/2/24,12:42:00,31-26.7600S,153-06.6500E,13,25.483,34.8291
625,2013/2/24,12:43:00,31-26.6300S,153-06.6900E,12,25.485,34.8502
626,2013/2/24,12:44:00,31-26.5100S,153-06.7200E,14,25.496,34.8624
627,2013/2/24,12:45:00,31-26.3900S,153-06.7600E,13,25.511,34.8719
628,2013/2/24,12:46:00,31-26.2700S,153-06.8000E,13,25.527,34.8785
629,2013/2/24,12:47:00,31-26.1500S,153-06.8300E,12,25.535,34.8911
630,2013/2/24,12:48:00,31-26.0200S,153-06.8600E,12,25.534,34.9089
631,2013/2/24,12:49:00,31-25.9000S,153-06.9000E,15,25.55,34.9254
632,2013/2/24,12:50:00,31-25.7800S,153-06.9400E,16,25.56,34.937
633,2013/2/24,12:51:00,31-25.6600S,153-06.9800E,15,25.567,34.9429
634,2013/2/24,12:52:00,31-25.5400S,153-07.0200E,15,25.573,34.9515
635,2013/2/24,12:53:00,31-25.4100S,153-07.0500E,12,25.581,34.9607
636,2013/2/24,12:54:00,31-25.2800S,153-07.0900E,14,25.584,34.97
637,2013/2/24,12:55:00,31-25.1600S,153-07.1200E,15,25.597,34.9741
638,2013/2/24,12:56:00,31-25.0400S,153-07.1600E,13,25.605,34.9807
639,2013/2/24,12:57:00,31-24.9100S,153-07.1900E,12,25.609,34.9842
640,2013/2/24,12:58:00,31-24.7900S,153-07.2300E,13,25.615,34.9918
641,2013/2/24,12:59:00,31-24.6700S,153-07.2700E,12,25.623,35.0002
642,2013/2/24,13:00:00,31-24.5400S,153-07.3100E,17,25.641,35.0098
643,2013/2/24,13:01:00,31-24.4200S,153-07.3500E,18,25.66,35.0142
644,2013/2/24,13:02:00,31-24.3000S,153-07.4000E,16,25.675,35.0204
645,2013/2/24,13:03:00,31-24.1800S,153-07.4300E,12,25.676,35.0303
646,2013/2/24,13:04:00,31-24.0600S,153-07.4700E,12,25.682,35.0477
647,2013/2/24,13:05:00,31-23.9300S,153-07.5100E,13,25.671,35.0677
1,2013/2/24,13:06:00,31-23.8100S,153-07.5400E,13,25.666,35.0788
2,2013/2/24,13:07:00,31-23.6800S,153-07.5800E,15,25.662,35.084
3,2013/2/24,13:08:00,31-23.5600S,153-07.6200E,16,25.655,35.0744
4,2013/2/24,13:09:00,31-23.4400S,153-07.6500E,11,25.649,35.071
5,2013/2/24,13:10:00,31-23.3200S,153-07.6800E,12,25.639,35.0659
6,2013/2/24,13:11:00,31-23.2000S,153-07.7200E,13,25.632,35.0613
7,2013/2/24,13:12:00,31-23.0700S,153-07.7500E,14,25.63,35.0525
8,2013/2/24,13:13:00,31-22.9500S,153-07.7800E,12,25.629,35.0453
9,2013/2/24,13:14:00,31-22.8300S,153-07.8200E,14,25.625,35.0438
10,2013/2/24,13:15:00,31-22.7100S,153-07.8500E,12,25.625,35.045
11,2013/2/24,13:16:00,31-22.5900S,153-07.8800E,12,25.627,35.0398
12,2013/2/24,13:17:00,31-22.4600S,153-07.9100E,13,25.621,35.0369
13,2013/2/24,13:18:00,31-22.3400S,153-07.9500E,14,25.62,35.0356
14,2013/2/24,13:19:00,31-22.2100S,153-07.9900E,15,25.63,35.031
15,2013/2/24,13:20:00,31-22.0900S,153-08.0200E,16,25.639,35.028
16,2013/2/24,13:21:00,31-21.9700S,153-08.0700E,18,25.643,35.0326
17,2013/2/24,13:22:00,31-21.8500S,153-08.1100E,15,25.649,35.0409
18,2013/2/24,13:23:00,31-21.7200S,153-08.1400E,13,25.653,35.0477
19,2013/2/24,13:24:00,31-21.6000S,153-08.1700E,11,25.649,35.0516
20,2013/2/24,13:25:00,31-21.4800S,153-08.2000E,10,25.651,35.055
21,2013/2/24,13:26:00,31-21.3500S,153-08.2300E,11,25.649,35.0541
22,2013/2/24,13:27:00,31-21.2300S,153-08.2600E,10,25.644,35.0498
23,2013/2/24,13:28:00,31-21.1000S,153-08.2900E,11,25.644,35.0466
24,2013/2/24,13:29:00,31-20.9800S,153-08.3200E,12,25.643,35.042
25,2013/2/24,13:30:00,31-20.8600S,153-08.3500E,11,25.638,35.0394
26,2013/2/24,13:31:00,31-20.7300S,153-08.3800E,9,25.633,35.0357
27,2013/2/24,13:32:00,31-20.6000S,153-08.4100E,11,25.63,35.0285
28,2013/2/24,13:33:00,31-20.4800S,153-08.4400E,11,25.625,35.0235
29,2013/2/24,13:34:00,31-20.3500S,153-08.4800E,14,25.623,35.0198
30,2013/2/24,13:35:00,31-20.2300S,153-08.5100E,15,25.62,35.0169
31,2013/2/24,13:36:00,31-20.1000S,153-08.5500E,13,25.616,35.0145
32,2013/2/24,13:37:00,31-19.9800S,153-08.5900E,15,25.615,35.0106
33,2013/2/24,13:38:00,31-19.8500S,153-08.6300E,13,25.611,35.0066
34,2013/2/24,13:39:00,31-19.7300S,153-08.6600E,12,25.606,35.0013
35,2013/2/24,13:40:00,31-19.6000S,153-08.7000E,12,25.597,34.9982
36,2013/2/24,13:41:00,31-19.4700S,153-08.7300E,11,25.592,34.9927
37,2013/2/24,13:42:00,31-19.3400S,153-08.7700E,12,25.588,34.9867
38,2013/2/24,13:43:00,31-19.2100S,153-08.8100E,14,25.586,34.9764
39,2013/2/24,13:44:00,31-19.0900S,153-08.8400E,15,25.576,34.9709
40,2013/2/24,13:45:00,31-18.9600S,153-08.8800E,12,25.574,34.9705
41,2013/2/24,13:46:00,31-18.8300S,153-08.9100E,12,25.57,34.9642
42,2013/2/24,13:47:00,31-18.7100S,153-08.9500E,12,25.563,34.9572
43,2013/2/24,13:48:00,31-18.5800S,153-08.9800E,15,25.567,34.9486
44,2013/2/24,13:49:00,31-18.4500S,153-09.0200E,14,25.583,34.9358
45,2013/2/24,13:50:00,31-18.3300S,153-09.0600E,13,25.597,34.9277
46,2013/2/24,13:51:00,31-18.2000S,153-09.1000E,13,25.619,34.927
47,2013/2/24,13:52:00,31-18.0800S,153-09.1400E,14,25.624,34.9372
48,2013/2/24,13:53:00,31-17.9500S,153-09.1700E,15,25.623,34.9526
49,2013/2/24,13:54:00,31-17.8300S,153-09.2100E,15,25.633,34.9646
50,2013/2/24,13:55:00,31-17.7000S,153-09.2500E,13,25.63,34.9722
51,2013/2/24,13:56:00,31-17.5800S,153-09.3000E,16,25.622,34.9845
52,2013/2/24,13:57:00,31-17.4500S,153-09.3400E,17,25.62,34.9891
53,2013/2/24,13:58:00,31-17.3300S,153-09.3800E,14,25.62,34.9793
54,2013/2/24,13:59:00,31-17.2000S,153-09.4200E,14,25.619,34.9761
55,2013/2/24,14:00:00,31-17.0700S,153-09.4600E,15,25.632,34.9756
56,2013/2/24,14:01:00,31-16.9500S,153-09.5000E,15,25.632,34.977
57,2013/2/24,14:02:00,31-16.8200S,153-09.5400E,13,25.63,34.9816
58,2013/2/24,14:03:00,31-16.6900S,153-09.5800E,13,25.632,34.9846
59,2013/2/24,14:04:00,31-16.5600S,153-09.6100E,13,25.618,34.9868
60,2013/2/24,14:05:00,31-16.4400S,153-09.6500E,14,25.616,34.9884
61,2013/2/24,14:06:00,31-16.3100S,153-09.6800E,14,25.621,34.9801
62,2013/2/24,14:07:00,31-16.1800S,153-09.7200E,16,25.619,34.967
63,2013/2/24,14:08:00,31-16.0600S,153-09.7600E,13,25.63,34.9701
64,2013/2/24,14:09:00,31-15.9300S,153-09.8000E,16,25.625,34.966
65,2013/2/24,14:10:00,31-15.8100S,153-09.8500E,15,25.652,34.9728